Cloud_Cover
100 100 100 100 100 100 100 74 100 100 55 22 5 5 5 10 100 10 6 8 60 100 56 90 97 93 100 60 84 6 1 5 14 62 76 86 99 100 100 100 100 100 100 100 100 100 81 81 28 100 91 93 100 100
100 99 100 100 100 100 50 28 34 100 99 10 14 31 5 5 16 6 16 34 97 100 79 98 100 100 97 67 36 52 2 41 91 52 38 78 74 100 100 100 100 100 100 100 100 100 100 100 100 100 100 100 98 100
100 100 90 100 55 86 72 86 5 31 99 76 44 71 49 9 7 5 5 81 100 81 6 96 79 100 100 99 63 3 5 24 56 100 97 99 93 90 100 100 100 100 100 100 100 100 100 100 100 100 100 100 95 100
97 100 68 71 7 86 100 98 62 29 99 66 79 100 100 79 8 6 5 99 96 29 94 92 73 100 100 100 16 19 12 14 82 100 100 100 99 97 84 100 100 100 100 100 100 100 100 100 100 100 100 100 100 92
100 100 98 88 77 100 96 100 100 100 100 100 100 100 100 64 100 8 94 100 98 90 100 100 100 88 67 66 5 83 25 92 94 100 100 100 100 99 92 86 100 100 100 100 100 100 100 100 100 99 100 100 100 100
100 77 96 100 100 100 92 100 99 100 90 100 100 100 100 100 100 90 100 100 100 100 100 100 100 96 77 28 11 70 95 93 100 100 100 97 79 87 89 57 40 16 56 94 100 100 100 100 100 100 99 100 100 100
100 100 100 88 97 100 92 96 68 94 100 100 100 100 100 100 100 100 100 100 100 100 100 100 100 100 46 30 45 86 100 83 82 82 93 91 58 6 80 89 6 82 83 99 100 100 100 100 100 100 100 100 100 100
100 100 100 100 100 100 100 100 95 100 100 100 100 100 100 100 100 100 100 100 100 86 96 98 100 100 97 26 53 43 100 63 69 79 13 11 4 5 41 15 5 5 42 5 55 100 100 100 82 100 100 100 100 100
100 100 100 100 100 100 100 100 100 100 100 100 100 100 100 100 100 100 100 100 100 72 100 100 100 100 98 5 17 43 100 100 94 62 5 5 6 30 6 93 63 66 100 99 94 55 100 100 100 100 100 100 100 100
100 100 100 100 100 100 100 100 100 100 100 100 100 100 100 100 100 100 100 100 94 100 100 100 100 100 14 5 7 23 7 100 94 88 24 5 8 5 5 5 56 95 100 91 99 51 56 81 100 100 100 100 100 100
100 100 100 100 100 100 100 100 100 100 100 100 100 100 100 100 100 100 100 100 100 26 100 100 100 91 5 5 28 41 93 91 97 93 14 5 5 5 5 33 5 32 94 87 91 91 96 100 100 100 100 90 100 100
100 100 100 100 100 100 100 100 100 100 100 100 100 100 100 100 100 100 100 100 100 96 100 100 100 96 21 5 100 76 97 75 76 12 19 5 5 5 16 29 26 5 70 74 93 80 65 72 93 100 100 100 100 100
100 100 100 100 100 100 100 100 100 100 100 100 100 100 100 100 100 100 100 100 100 100 100 100 100 98 10 8 74 96 97 81 7 60 16 5 5 27 37 90 60 5 6 12 28 86 99 74 71 95 100 100 100 100
100 100 100 100 100 100 100 100 100 100 100 100 100 100 100 100 100 100 100 100 100 100 100 100 100 100 16 5 98 99 96 50 5 55 5 5 5 5 46 53 100 87 46 55 44 80 100 74 92 100 100 100 100 100
100 100 100 100 100 100 100 100 100 100 100 100 100 100 100 100 100 100 100 100 100 100 100 100 100 100 95 54 86 100 100 81 8 5 5 15 5 61 100 90 100 100 100 96 72 74 74 79 100 100 100 100 100 100
100 100 100 100 100 100 100 100 100 100 100 100 100 100 100 100 100 100 100 100 100 100 100 100 100 100 100 88 100 100 100 100 100 90 22 84 71 76 61 56 92 100 100 100 79 75 72 99 100 100 100 100 100 100
100 100 100 100 100 100 100 100 100 100 100 100 100 100 100 100 100 100 100 100 100 100 100 100 100 100 100 95 100 100 100 100 100 100 11 10 6 13 35 82 65 89 82 73 65 56 88 82 100 100 100 100 100 100
100 100 100 100 100 100 100 100 100 100 100 100 100 100 100 100 100 100 100 100 100 100 100 100 100 100 100 100 100 100 100 100 100 100 74 23 25 80 67 93 66 92 96 96 77 71 68 88 100 100 100 100 100 100
100 100 100 100 100 100 100 100 100 100 100 100 100 100 100 100 100 100 100 100 100 100 100 100 100 100 100 100 100 100 100 100 100 100 100 83 12 7 16 77 82 100 93 89 79 81 75 90 100 100 100 100 100 100
100 100 100 100 100 100 100 100 100 100 100 100 100 100 100 100 100 100 100 100 100 100 100 100 100 100 100 100 100 100 100 100 85 33 16 78 100 94 98 86 62 83 94 92 82 94 79 87 100 100 100 100 100 100
100 100 100 100 100 100 100 100 100 100 100 100 100 100 100 100 100 100 100 100 100 100 100 100 100 100 100 100 100 100 100 100 89 52 28 98 92 100 100 100 98 99 98 88 83 85 100 96 100 100 100 100 100 100
100 100 100 100 100 100 100 100 100 100 100 100 100 100 100 100 100 100 100 100 100 100 100 100 100 100 100 100 100 100 100 100 83 88 81 100 100 96 99 87 97 83 87 83 79 73 94 100 100 100 100 100 100 100
100 100 100 100 100 100 100 100 100 100 100 100 100 100 100 100 100 100 100 100 100 100 100 100 100 100 100 100 100 100 100 100 99 100 100 100 87 74 100 100 83 79 88 78 81 94 100 100 100 100 100 100 100 100
100 100 100 100 100 100 99 100 100 100 100 100 100 100 100 100 100 100 100 100 100 100 100 100 100 100 100 100 100 100 100 100 100 100 100 100 76 91 100 77 99 88 62 78 97 100 100 100 100 100 100 100 100 100
100 90 100 100 100 100 100 100 100 100 100 100 100 100 100 100 100 100 100 100 100 100 100 100 100 100 100 100 100 100 100 100 100 100 86 80 89 100 100 100 99 49 74 92 100 100 100 100 100 100 100 100 100 100
97 99 100 100 100 98 93 78 93 100 100 100 100 100 100 100 100 100 100 100 100 100 100 100 100 100 100 100 100 100 100 100 98 86 100 100 100 99 96 97 89 16 74 94 100 100 100 100 100 100 100 100 100 100
88 82 77 98 99 100 100 99 99 100 100 100 100 100 100 100 100 100 100 100 100 100 100 100 100 100 100 100 100 100 100 100 100 100 100 98 98 23 8 56 68 44 65 84 100 100 100 100 100 100 100 100 100 100
99 98 100 99 98 100 100 100 100 100 100 100 100 100 100 100 100 100 100 100 100 100 100 100 100 100 100 100 100 100 100 100 98 100 76 63 91 99 98 73 21 95 88 100 94 98 99 100 100 100 100 100 100 100
97 89 100 100 100 100 100 100 100 100 100 100 100 100 100 100 100 100 100 100 100 100 100 100 100 100 100 100 100 100 100 100 94 78 70 24 7 6 75 48 63 75 100 88 99 100 100 100 91 97 100 100 100 99
81 92 100 92 100 100 100 100 100 100 100 100 100 100 100 100 100 100 100 100 100 100 100 100 100 100 100 100 100 100 91 57 6 5 16 37 5 10 98 97 76 78 95 95 95 100 100 100 90 87 94 100 100 100
100 100 100 99 99 100 100 100 100 100 100 100 100 100 100 100 100 100 100 100 100 100 100 100 100 100 100 100 79 50 15 22 39 12 41 32 76 100 100 100 80 76 70 77 82 86 83 90 94 100 100 100 85 96
100 100 100 100 100 100 100 100 100 100 100 100 100 100 100 100 100 100 100 100 100 100 100 100 100 89 25 5 20 26 67 15 5 27 63 99 100 20 6 38 58 55 55 54 67 74 95 100 100 99 100 100 100 96
91 100 100 100 100 100 100 100 100 100 100 100 100 100 100 100 100 100 100 100 100 89 44 36 39 5 18 5 24 86 82 53 98 100 100 100 100 75 89 72 49 54 50 69 64 100 100 92 92 90 89 98 99 67